DW1520 Weather Reports


time (UTC)temp
F
wind
direction
speed
knots
gust
knots
rain 1hr
in
rain 24hr
in
rain mn
in
humidity
%
barometer
mb
20260905100006 70 340 0.9 2.6 0.00 0.00 0.00 92 1010.8
20260905095506 70 22 0.0 2.6 0.00 0.00 0.00 92 1010.7
20260905095006 70 22 0.9 1.7 0.00 0.00 0.00 92 1010.7
20260905094505 70 348 0.9 1.7 0.00 0.00 0.00 92 1010.6
20260905094006 70 5 0.9 1.7 0.00 0.00 0.00 92 1010.6
20260905093505 70 5 0.9 1.7 0.00 0.00 0.00 92 1010.7
20260905093006 70 5 0.9 2.6 0.00 0.00 0.00 92 1010.6
20260905092506 70 334 0.9 2.6 0.00 0.00 0.00 92 1010.6
20260905091506 70 327 0.0 1.7 0.00 0.00 0.00 92 1010.8
20260905090506 70 6 0.9 2.6 0.00 0.00 0.00 92 1010.9
20260905090006 70 5 0.0 1.7 0.00 0.00 0.00 92 1010.9
20260905085506 70 5 0.0 0.9 0.00 0.00 0.00 92 1011.0
20260905085006 70 5 0.0 2.6 0.00 0.00 0.00 92 1011.0
20260905084506 69 5 0.9 1.7 0.00 0.00 0.00 92 1011.0
20260905084006 69 5 0.0 0.0 0.00 0.00 0.00 92 1011.1
20260905083506 69 5 0.0 0.0 0.00 0.00 0.00 92 1011.2
20260905082506 70 5 0.0 0.0 0.00 0.00 0.00 92 1011.2
20260905082006 70 5 0.0 1.7 0.00 0.00 0.00 92 1011.0
20260905081505 70 5 0.0 0.9 0.00 0.00 0.00 91 1011.0
20260905081006 70 5 0.0 0.0 0.00 0.00 0.00 91 1011.1
20260905080505 70 5 0.0 0.9 0.00 0.00 0.00 91 1011.1
20260905080006 70 5 0.0 0.0 0.00 0.00 0.00 91 1011.2
20260905075505 71 5 0.0 0.9 0.00 0.00 0.00 91 1011.1
20260905075006 71 5 0.0 0.0 0.00 0.00 0.00 91 1011.1
20260905074506 71 5 0.0 0.0 0.00 0.00 0.00 91 1011.1
20260905073505 71 5 0.0 0.9 0.00 0.00 0.00 91 1011.0
20260905073006 71 5 0.0 0.9 0.00 0.00 0.00 91 1011.0
20260905072505 71 5 0.0 0.9 0.00 0.00 0.00 91 1011.1
20260905072006 71 5 0.0 0.9 0.00 0.00 0.00 91 1011.0
20260905071506 71 5 0.0 0.0 0.00 0.00 0.00 91 1010.9
20260905070506 71 5 0.0 0.0 0.00 0.00 0.00 91 1010.8
20260905070005 72 5 0.0 0.0 0.00 0.00 0.00 91 1010.9
20260905065006 72 5 0.0 0.0 0.00 0.00 0.00 91 1010.8
20260905064505 72 5 0.0 0.9 0.00 0.00 0.00 91 1010.9
20260905063505 72 5 0.0 0.9 0.00 0.00 0.00 90 1010.8
20260905063006 72 5 0.0 0.0 0.00 0.00 0.00 90 1010.9
20260905062505 72 5 0.0 0.9 0.00 0.00 0.00 90 1010.7
20260905062006 73 5 0.0 0.9 0.00 0.00 0.00 90 1010.7
20260905061506 73 5 0.0 0.0 0.00 0.00 0.00 90 1010.8
20260905060505 73 5 0.0 0.0 0.00 0.00 0.00 90 1010.6
20260905060005 73 5 0.0 0.9 0.00 0.00 0.00 90 1010.7
20260905055505 73 5 0.0 0.9 0.00 0.00 0.00 90 1010.7
20260905055006 73 5 0.0 0.9 0.00 0.00 0.00 90 1010.7
20260905054505 74 5 0.0 0.9 0.00 0.00 0.00 90 1010.6
20260905053006 74 5 0.0 0.9 0.00 0.00 0.00 90 1010.5
20260905052506 74 5 0.0 0.9 0.00 0.00 0.00 90 1010.4
20260905052005 74 5 0.0 1.7 0.00 0.00 0.00 90 1010.3
20260905051506 75 5 0.0 0.0 0.00 0.00 0.00 90 1010.2
20260905051006 75 5 0.0 0.0 0.00 0.00 0.00 90 1010.2
20260905050505 75 5 0.0 0.0 0.00 0.00 0.00 90 1010.2
20260905050006 75 5 0.0 0.0 0.00 0.00 0.00 90 1010.2
20260905045506 75 5 0.0 0.0 0.00 0.00 0.00 90 1010.1
20260905045006 75 5 0.0 0.0 0.00 0.00 0.00 90 1010.1
20260905044505 75 5 0.0 0.0 0.00 0.00 0.00 90 1010.2
20260905044006 76 5 0.0 0.0 0.00 0.00 0.00 90 1010.2
20260905043506 76 5 0.0 0.0 0.00 0.00 0.00 90 1010.1
20260905042506 76 5 0.0 0.0 0.00 0.00 0.00 89 1010.2
20260905042006 76 5 0.0 0.0 0.00 0.00 0.00 89 1010.2
20260905041506 76 5 0.0 0.0 0.00 0.00 0.00 89 1010.2
20260905041006 77 5 0.0 0.0 0.00 0.00 0.00 89 1010.2
20260905040506 77 5 0.0 0.0 0.00 0.00 0.00 89 1010.1
20260905035506 77 5 0.0 0.0 0.00 0.00 0.00 88 1010.1
20260905034506 78 5 0.0 0.0 0.00 0.00 0.00 88 1010.2
20260905033506 78 5 0.0 0.9 0.00 0.00 0.00 88 1010.1
20260905032506 79 5 0.0 0.9 0.00 0.00 0.00 87 1010.1
20260905031506 79 5 0.0 0.9 0.00 0.00 0.00 87 1010.1
20260905031006 79 5 0.0 1.7 0.00 0.00 0.00 87 1010.1
20260905030005 80 11 0.9 1.7 0.00 0.00 0.00 86 1010.1
20260905025506 80 11 0.9 2.6 0.00 0.00 0.00 86 1010.2
20260905024506 80 345 0.0 1.7 0.00 0.00 0.00 87 1010.2
20260905024006 80 344 0.9 2.6 0.00 0.00 0.00 87 1010.2
20260905023505 80 344 0.0 1.7 0.00 0.00 0.00 87 1010.0
20260905023005 81 344 0.9 2.6 0.00 0.00 0.00 87 1010.0
20260905022506 81 344 0.9 2.6 0.00 0.00 0.00 87 1009.9
20260905022006 81 140 0.9 2.6 0.00 0.00 0.00 87 1009.8
20260905021505 81 155 0.9 1.7 0.00 0.00 0.00 87 1009.8
20260905021006 81 155 0.9 2.6 0.00 0.00 0.00 86 1009.7
20260905020506 81 155 0.9 1.7 0.00 0.00 0.00 86 1009.6
20260905020006 81 155 0.0 0.9 0.00 0.00 0.00 86 1009.6
20260905015505 81 155 0.0 1.7 0.00 0.00 0.00 86 1009.4
20260905015006 82 155 0.0 1.7 0.00 0.00 0.00 85 1009.3
20260905014505 82 155 0.0 0.9 0.00 0.00 0.00 85 1009.3
20260905014006 82 155 0.0 0.0 0.00 0.00 0.00 84 1009.3
20260905013506 82 155 0.0 0.9 0.00 0.00 0.00 84 1009.2
20260905013006 83 155 0.0 1.7 0.00 0.00 0.00 84 1009.2
20260905012506 83 155 0.0 0.0 0.00 0.00 0.00 83 1009.0
20260905012006 83 155 0.0 0.0 0.00 0.00 0.00 83 1009.0
20260905011505 83 155 0.0 0.0 0.00 0.00 0.00 82 1009.0
20260905011006 84 155 0.0 0.9 0.00 0.00 0.00 82 1008.8
20260905010506 84 155 0.0 0.0 0.00 0.00 0.00 82 1008.8
20260905010005 84 155 0.0 0.0 0.00 0.00 0.00 81 1008.7
20260905005506 85 155 0.0 0.9 0.00 0.00 0.00 81 1008.7
20260905005005 85 155 0.0 1.7 0.00 0.00 0.00 80 1008.6
20260905004006 85 155 0.9 1.7 0.00 0.00 0.00 80 1008.6
20260905003506 85 155 0.0 0.9 0.00 0.00 0.00 80 1008.6
20260905003006 85 155 0.9 1.7 0.00 0.00 0.00 79 1008.5
20260905002505 85 155 0.0 0.9 0.00 0.00 0.00 78 1008.5
20260905002006 86 155 0.0 1.7 0.00 0.00 0.00 78 1008.3
20260905001505 86 155 0.0 1.7 0.00 0.00 0.00 77 1008.3
20260905001006 86 155 0.9 2.6 0.00 0.00 0.00 76 1008.2
20260905000505 86 155 0.9 1.7 0.00 0.00 0.00 76 1008.2
20260904235505 87 155 1.7 2.6 0.00 0.00 0.00 75 1008.2
20260904234505 87 155 1.7 2.6 0.00 0.00 0.00 74 1008.2
20260904234006 87 155 2.6 6.1 0.00 0.00 0.00 73 1008.2
20260904233506 87 165 1.7 5.2 0.00 0.00 0.00 73 1008.2
20260904233006 87 165 1.7 5.2 0.00 0.00 0.00 73 1008.2
20260904232006 88 162 1.7 2.6 0.00 0.00 0.00 72 1008.2
20260904231506 88 162 0.9 1.7 0.00 0.00 0.00 73 1008.1
20260904231006 88 163 1.7 4.3 0.00 0.00 0.00 72 1008.1
20260904230506 88 163 1.7 2.6 0.00 0.00 0.00 72 1008.2
20260904230005 88 163 1.7 4.3 0.00 0.00 0.00 72 1008.1
20260904225505 88 163 0.9 4.3 0.00 0.00 0.00 72 1008.0
20260904224505 88 163 0.9 2.6 0.00 0.00 0.00 71 1008.0
20260904224006 89 163 0.9 1.7 0.00 0.00 0.00 70 1008.0
20260904223005 89 163 0.0 1.7 0.00 0.00 0.00 69 1007.8
20260904222006 89 163 0.9 4.3 0.00 0.00 0.00 70 1007.7
20260904221505 89 163 2.6 4.3 0.00 0.00 0.00 69 1007.8
20260904221006 89 163 1.7 4.3 0.00 0.00 0.00 69 1007.7
20260904220506 89 163 1.7 4.3 0.00 0.00 0.00 69 1007.7
20260904220006 89 163 1.7 4.3 0.00 0.00 0.00 69 1007.6
20260904215505 89 163 2.6 4.3 0.00 0.00 0.00 69 1007.7
20260904215006 89 163 1.7 4.3 0.00 0.00 0.00 70 1007.6
20260904214506 90 163 1.7 4.3 0.00 0.00 0.00 70 1007.7
20260904214005 90 163 3.5 6.1 0.00 0.00 0.00 69 1007.6
20260904213006 90 175 2.6 6.1 0.00 0.00 0.00 67 1007.7
20260904212005 90 153 1.7 4.3 0.00 0.00 0.00 69 1007.7
20260904211505 90 144 1.7 2.6 0.00 0.00 0.00 70 1007.7
20260904211006 91 158 1.7 4.3 0.00 0.00 0.00 69 1007.7
20260904210506 91 144 1.7 5.2 0.00 0.00 0.00 68 1007.6
20260904210005 91 161 2.6 5.2 0.00 0.00 0.00 67 1007.6
20260904205506 91 163 1.7 5.2 0.00 0.00 0.00 67 1007.7
20260904205006 91 146 1.7 2.6 0.00 0.00 0.00 68 1007.6
20260904204006 91 144 1.7 4.3 0.00 0.00 0.00 67 1007.6
20260904203505 91 143 1.7 2.6 0.00 0.00 0.00 67 1007.6
20260904203005 91 144 1.7 5.2 0.00 0.00 0.00 68 1007.6
20260904202505 92 170 2.6 5.2 0.00 0.00 0.00 67 1007.6
20260904202005 92 170 1.7 4.3 0.00 0.00 0.00 67 1007.6
20260904200505 92 170 2.6 4.3 0.00 0.00 0.00 64 1007.6
20260904200005 93 170 1.7 4.3 0.00 0.00 0.00 66 1007.6
20260904195506 93 170 0.9 2.6 0.00 0.00 0.00 66 1007.6
20260904194006 93 170 1.7 5.2 0.00 0.00 0.00 63 1007.6
20260904193506 94 170 0.9 1.7 0.00 0.00 0.00 61 1007.6
20260904193006 94 170 0.0 4.3 0.00 0.00 0.00 61 1007.6
20260904192506 94 170 2.6 4.3 0.00 0.00 0.00 60 1007.6
20260904192006 94 153 0.9 2.6 0.00 0.00 0.00 62 1007.6
20260904191506 95 153 1.7 5.2 0.00 0.00 0.00 60 1007.6
20260904191006 95 165 0.9 2.6 0.00 0.00 0.00 62 1007.5
20260904190505 95 165 1.7 4.3 0.00 0.00 0.00 61 1007.6
20260904190006 95 169 0.9 2.6 0.00 0.00 0.00 61 1007.6
20260904185505 95 169 0.9 2.6 0.00 0.00 0.00 60 1007.6
20260904185005 95 147 0.9 2.6 0.00 0.00 0.00 61 1007.6
20260904184505 95 160 0.9 6.1 0.00 0.00 0.00 60 1007.6
20260904184006 95 174 2.6 6.1 0.00 0.00 0.00 60 1007.6
20260904183506 95 155 0.9 2.6 0.00 0.00 0.00 61 1007.6
20260904183006 94 152 0.9 7.0 0.00 0.00 0.00 61 1007.6
20260904182505 94 74 0.9 7.0 0.00 0.00 0.00 60 1007.7
20260904182006 94 175 1.7 5.2 0.00 0.00 0.00 61 1007.7
20260904181506 94 137 1.7 5.2 0.00 0.00 0.00 61 1007.7
20260904181005 94 163 0.9 4.3 0.00 0.00 0.00 61 1007.7
20260904180506 94 163 1.7 5.2 0.00 0.00 0.00 61 1007.7
20260904180005 94 161 1.7 5.2 0.00 0.00 0.00 62 1007.7
20260904175505 93 161 0.9 2.6 0.00 0.00 0.00 62 1007.7
20260904175006 93 161 1.7 4.3 0.00 0.00 0.00 60 1007.8
20260904174505 94 161 2.6 5.2 0.00 0.00 0.00 61 1007.8
20260904173005 93 167 0.0 2.6 0.00 0.00 0.00 62 1007.7
20260904172505 93 167 0.9 2.6 0.00 0.00 0.00 61 1007.8
20260904172006 93 167 2.6 5.2 0.00 0.00 0.00 63 1007.8
20260904171506 92 163 0.9 5.2 0.00 0.00 0.00 64 1007.8
20260904171006 92 161 0.0 0.9 0.00 0.00 0.00 64 1007.8
20260904170505 92 161 0.9 1.7 0.00 0.00 0.00 65 1007.8
20260904170005 92 161 0.0 2.6 0.00 0.00 0.00 65 1007.8
20260904165505 92 161 0.9 1.7 0.00 0.00 0.00 63 1007.9
20260904165006 91 161 0.9 2.6 0.00 0.00 0.00 66 1007.8
20260904164506 91 161 0.9 2.6 0.00 0.00 0.00 64 1007.8
20260904164006 90 161 0.0 1.7 0.00 0.00 0.00 67 1007.7
20260904162505 89 161 0.9 2.6 0.00 0.00 0.00 66 1007.7
20260904162005 89 161 0.0 0.9 0.00 0.00 0.00 69 1007.8
20260904161505 88 161 0.9 1.7 0.00 0.00 0.00 68 1007.9
20260904161006 88 161 0.9 1.7 0.00 0.00 0.00 68 1007.9
20260904160005 88 161 0.0 1.7 0.00 0.00 0.00 71 1007.9
20260904155505 87 161 0.0 0.9 0.00 0.00 0.00 70 1007.9
20260904155005 87 161 0.0 1.7 0.00 0.00 0.00 70 1008.0
20260904154505 87 161 0.9 2.6 0.00 0.00 0.00 69 1008.1
20260904154005 86 161 0.0 0.9 0.00 0.00 0.00 75 1008.0
20260904153505 85 161 0.0 1.7 0.00 0.00 0.00 73 1008.1
20260904153005 85 161 0.9 1.7 0.00 0.00 0.00 74 1008.0
20260904152506 84 161 0.0 2.6 0.00 0.00 0.00 76 1008.0
20260904152005 84 161 0.0 0.9 0.00 0.00 0.00 77 1008.0
20260904151506 83 161 0.0 0.9 0.00 0.00 0.00 78 1007.9
20260904151006 83 161 0.0 0.9 0.00 0.00 0.00 76 1007.9
20260904150506 82 161 0.0 0.0 0.00 0.00 0.00 78 1007.9
20260904145005 80 161 0.0 1.7 0.00 0.00 0.00 82 1008.0
20260904144506 80 161 0.9 1.7 0.00 0.00 0.00 82 1008.0
20260904144005 80 161 0.0 2.6 0.00 0.00 0.00 82 1008.0
20260904143506 79 163 0.9 2.6 0.00 0.00 0.00 82 1007.9
20260904143006 79 163 0.0 0.9 0.00 0.00 0.00 83 1007.9
20260904142506 79 163 0.0 2.6 0.00 0.00 0.00 84 1007.8
20260904142006 78 163 0.9 1.7 0.00 0.00 0.00 84 1007.9
20260904141505 78 163 0.9 2.6 0.00 0.00 0.00 84 1007.9
20260904141005 78 163 0.9 1.7 0.00 0.00 0.00 85 1007.7
20260904140505 78 163 0.9 1.7 0.00 0.00 0.00 85 1007.6
20260904140005 77 163 0.9 1.7 0.00 0.00 0.00 86 1007.6
20260904135506 77 163 0.9 2.6 0.00 0.00 0.00 86 1007.7
20260904135005 77 163 0.9 1.7 0.00 0.00 0.00 87 1007.7
20260904134505 76 163 0.9 1.7 0.00 0.00 0.00 87 1007.7
20260904134006 76 163 0.9 2.6 0.00 0.00 0.00 87 1007.7
20260904133506 76 163 0.9 2.6 0.00 0.00 0.00 87 1007.7
20260904133006 76 163 0.9 4.3 0.00 0.00 0.00 88 1007.7
20260904132506 76 163 1.7 4.3 0.00 0.00 0.00 88 1007.7
20260904132006 75 163 1.7 4.3 0.00 0.00 0.00 88 1007.7
20260904131505 75 163 0.9 2.6 0.00 0.00 0.00 89 1007.7
20260904131005 75 163 1.7 4.3 0.00 0.00 0.00 90 1007.7
20260904130506 74 163 0.9 2.6 0.00 0.00 0.00 90 1007.6
20260904130006 74 163 2.6 5.2 0.00 0.00 0.00 91 1007.6
20260904125511 74 163 1.7 5.2 0.00 0.00 0.00 91 1007.6
20260904125006 73 163 0.9 2.6 0.00 0.00 0.00 91 1007.4
20260904124506 73 163 0.9 1.7 0.00 0.00 0.00 91 1007.3
20260904124006 73 163 0.9 1.7 0.00 0.00 0.00 91 1007.3
20260904123506 73 163 0.9 1.7 0.00 0.00 0.00 91 1007.3
20260904123005 73 163 0.9 1.7 0.00 0.00 0.00 91 1007.2
20260904122505 72 163 0.9 1.7 0.00 0.00 0.00 91 1007.2
20260904121505 72 163 0.9 2.6 0.00 0.00 0.00 91 1007.1
20260904121006 72 163 0.0 1.7 0.00 0.00 0.00 91 1007.1
20260904120505 73 163 0.9 1.7 0.00 0.00 0.00 91 1007.2
20260904120006 72 163 1.7 1.7 0.00 0.00 0.00 91 1007.2
20260904115505 73 163 0.9 2.6 0.00 0.01 0.00 91 1007.2
20260904115006 73 163 0.9 1.7 0.00 0.01 0.00 91 1007.2
20260904114505 73 163 0.9 2.6 0.00 0.02 0.00 90 1007.0
20260904113505 73 163 0.9 1.7 0.00 0.02 0.00 90 1007.0
20260904113006 73 163 0.9 2.6 0.00 0.03 0.00 90 1007.0
20260904112006 73 163 0.9 1.7 0.00 0.04 0.00 90 1007.0
20260904111505 73 163 0.9 1.7 0.00 0.05 0.00 90 1007.0
20260904111005 73 163 0.9 1.7 0.00 0.05 0.00 89 1007.0
20260904110505 74 163 0.0 1.7 0.00 0.05 0.00 89 1006.9
20260904110005 74 163 0.0 0.0 0.00 0.06 0.00 89 1006.9
20260904105505 74 163 0.0 0.0 0.00 0.06 0.00 89 1006.9
20260904105005 74 163 0.0 0.0 0.00 0.07 0.00 88 1006.9
20260904104505 74 163 0.0 0.0 0.00 0.07 0.00 88 1006.9
20260904104006 74 163 0.0 0.0 0.00 0.08 0.00 88 1006.9
20260904103506 75 163 0.0 0.0 0.00 0.08 0.00 88 1006.8
20260904102506 75 163 0.0 0.0 0.00 0.10 0.00 88 1007.0
20260904102006 75 163 0.0 0.0 0.00 0.10 0.00 88 1006.9
20260904101505 75 163 0.0 0.0 0.00 0.10 0.00 88 1006.9
20260904101005 75 163 0.0 0.0 0.00 0.10 0.00 88 1006.9
20260904100505 75 163 0.0 0.0 0.00 0.11 0.00 88 1006.9